Location: Guferjoch
(46.7462°N, 8.4506°E)
Time: 12:52:24
(UTC+00:00)

USA 267 - Pass Details

Date: 14 July 2020
Orbit: 1102 x 1106 km, 123.0° (Epoch: 03 August)

Event Time Altitude Azimuth Distance (km) Brightness Sun altitude
Exits shadow 00:32:11 32° 212° (SSW) 1,777 3.8 -20.3°
Maximum altitude 00:33:14 34° 231° (SW) 1,725 3.9 -20.2°
Drops below altitude 10° 00:39:05 10° 294° (WNW) 2,964 5.6 -20.0°
Sets 00:41:51 0° 304° (NW) 3,926 6.4 -19.8°
